Location: Unspecified
(41.9031°N, 12.4386°E)
Time: 05:05:00
(UTC+02:00)

ISS - Pass Details

Date: 28 March 2020
Orbit: 417 x 423 km, 51.6° (Epoch: 29 March)

Event Time Altitude Azimuth Distance (km) Brightness Sun altitude
Rises 19:54:13 0° 302° (WNW) 2,360 1.7 -15.8°
Reaches altitude 10° 19:56:54 10° 325° (NW) 1,497 -0.1 -16.2°
Maximum altitude 19:59:06 16° 6° (N) 1,179 -1.3 -16.6°
Enters shadow 20:00:42 12° 38° (NE) 1,356 -1.4 -16.9°
